This demonstration page uses our WeatherBlox Daily Observations layout. Learn more.

Left ArrowRight Arrow

Hourly Observations for April 25, 2017

Temp ( °F °C ) Dew Point ( °F °C ) Humidity (%) Winds ( mph kmh ) Pressure ( in mb ) Visibility ( mi km ) Precip ( " mm )
12:53 am 00:53 Cloudy 34 1.1 29 -1.7 82 82 E 23 37 29.78 1009 10 16 0.00 0.00
1:53 am 01:53 Cloudy 34 1.1 29 -1.7 82 82 E 23 37 29.79 1009 10 16 0.00 0.00
2:53 am 02:53 Cloudy 34 1.1 29 -1.7 82 82 E 25 41 29.80 1009 10 16 0.00 0.00
3:53 am 03:53 Cloudy 33 0.6 28 -2.2 82 82 E 18 30 29.82 1010 10 16 0.00 0.00
4:53 am 04:53 Cloudy 33 0.6 28 -2.2 82 82 E 21 33 29.83 1010 9 14 0.00 0.00
5:53 am 05:53 Cloudy 32 0 28 -2.2 85 85 E 23 37 29.84 1011 7 11 0.00 0.03
6:53 am 06:53 Cloudy 32 0 28 -2.2 85 85 E 21 33 29.86 1011 7 11 0.00 0.00
7:53 am 07:53 Cloudy 32 0 28 -2.2 85 85 E 24 39 29.88 1012 9 14 0.00 0.00
8:53 am 08:53 Cloudy 33 0.6 28 -2.2 82 82 E 23 37 29.90 1013 10 16 0.00 0.00
9:22 am 09:22 Cloudy 34 1 28 -2 81 81 E 20 31 29.94 1014 10 16 0.00 0.00
9:53 am 09:53 Cloudy 35 1.7 28 -2.2 76 76 E 21 33 29.91 1013 10 16 0.00 0.00
10:53 am 10:53 Cloudy 37 2.8 29 -1.7 73 73 E 17 28 29.92 1013 10 16 0.00 0.00
11:53 am 11:53 Cloudy 42 5.6 31 -0.6 65 65 E 18 30 29.91 1013 10 16 0.00 0.00
12:33 pm 12:33 Cloudy 42 5.6 31 -0.6 65 65 ENE 20 31 29.88 1012 10 16 0.00 0.00
12:53 pm 12:53 Cloudy 43 6.1 31 -0.6 63 63 ENE 16 26 29.90 1013 10 16 0.00 0.00
1:10 pm 13:10 Cloudy 43 6 32 0 66 66 ENE 14 22 29.88 1012 10 16 0.00 0.00
1:53 pm 13:53 Cloudy 46 7.8 32 0 58 58 ENE 17 28 29.89 1012 10 16 0.00 0.00
2:19 pm 14:19 Cloudy 46 7.8 32 0 58 58 ENE 15 24 29.83 1010 10 16 0.00 0.00
2:53 pm 14:53 Cloudy 47 8.3 33 0.6 59 59 ENE 17 28 29.87 1012 10 16 0.00 0.00
3:53 pm 15:53 Cloudy 48 8.9 33 0.6 56 56 ENE 18 30 29.85 1011 10 16 0.00 0.00
4:53 pm 16:53 Cloudy 48 8.9 33 0.6 56 56 ENE 18 30 29.86 1011 10 16 0.00 0.00
5:53 pm 17:53 Cloudy 47 8.3 34 1.1 61 61 ENE 14 22 29.87 1011 10 16 0.00 0.00
6:53 pm 18:53 Cloudy 46 7.8 34 1.1 63 63 ENE 13 20 29.88 1012 10 16 0.00 0.00
7:53 pm 19:53 Cloudy 44 6.7 32 0 63 63 ENE 16 26 29.88 1012 10 16 0.00 0.00
8:53 pm 20:53 Cloudy 42 5.6 33 0.6 71 71 ENE 10 17 29.89 1012 10 16 0.00 0.00
9:53 pm 21:53 Cloudy 41 5 34 1.1 76 76 ENE 9 15 29.90 1013 10 16 0.00 0.00
10:53 pm 22:53 Cloudy 40 4.4 36 2.2 86 86 WNW 3 6 29.91 1013 10 16 0.00 0.03
11:53 pm 23:53 Cloudy 39 3.9 36 2.2 89 89 Calm 29.89 1012 10 16 0.00 0.03

Powered by AerisWeather